Weather Roundup
Issued by NWS Corpus Christi, TX

Home | Current Version | Previous Version | Text Only | Print | Product List | Glossary On
Versions: 1 2 3 4 5 6 7 8 9 10 11 12 13 14 15 16 17 18 19 20 21 22 23 24 25 26 27 28 29 30 31 32 33 34 35 36 37 38 39 40 41 42 43 44 45 46 47 48 49 50
000
ASUS44 KCRP 190610
HRRCRP

SOUTH TEXAS REGIONAL WEATHER ROUNDUP
NATIONAL WEATHER SERVICE CORPUS CHRISTI TX
1200 AM CST THU JAN 19 2017


TXZ229>244-190700-
...CORPUS CHRISTI AREA OBSERVATIONS...

CITY           SKY/WX    TMP DP  RH WIND       PRES   REMARKS
CORPUS CHRISTI CLOUDY    58  57  97 NW7       29.97F
NAS CORPUS CHR LGT RAIN  59  58  96 VRB5      29.94F
ROCKPORT       LGT RAIN  58  55  90 NE10G21   29.93F
KINGSVILLE NAS CLOUDY    58  58 100 N3        29.96F
ALICE          CLOUDY    58  57  97 CALM      29.97F FOG
ORANGE GROVE   CLOUDY    59  58  96 NE3       29.97F
FALFURRIAS     CLOUDY    59  57  95 N3        29.96F
$$

...VICTORIA AREA OBSERVATIONS...

CITY           SKY/WX    TMP DP  RH WIND       PRES   REMARKS
VICTORIA       CLOUDY    56  53  90 N6        29.98F
BEEVILLE       CLOUDY    57  57 100 NE3       29.99S
PLEASANTON     CLOUDY    55  53  93 CALM      30.01S
SAN ANTONIO    MOCLDY    54  49  83 NE3       29.99F
$$

...LAREDO AREA OBSERVATIONS...

CITY           SKY/WX    TMP DP  RH WIND       PRES   REMARKS
LAREDO         CLOUDY    62  53  72 NW5       30.00F
COTULLA        MOCLDY    56  52  86 CALM      29.99F
DEL RIO        CLOUDY    45  44  97 CALM      30.02S
MCALLEN        CLOUDY    62  58  86 SE7       29.98F
HEBBRONVILLE   CLOUDY    57  55  95 CALM      29.99F
$$

...OTHER TEXAS OBSERVATIONS...

CITY           SKY/WX    TMP DP  RH WIND       PRES   REMARKS
BROWNSVILLE    LGT RAIN  64  59  83 N7        30.00F
HOUSTON        CLOUDY    57  55  93 NW5       29.96F FOG
COL. STATION   CLOUDY    52  51  97 W3        29.98F
AUSTIN         CLOUDY    53  52  96 E3        29.98F FOG
WACO           CLOUDY    51  50  96 W5        29.99F
FORT WORTH     CLOUDY    53  50  89 SW6       29.94F
WICHITA FALLS  PTCLDY    43  42  97 S8        29.93F
LUBBOCK        PTCLDY    45  39  79 SW14      29.86F
EL PASO        MOCLDY    52  33  48 W10       30.02F
$$

...MARINE OBSERVATIONS...

STATION/POSITION TIME  SKY/WX   TEMP    WIND        PRES    VSBY  WAVE   SWELL
                                AIR SEA DIR/SP/G                  HT/PER HT/PER
                 (UTC)          (F)     (DEG/KT/KT) (MB)    (MI)  (FT/S) (FT/S)
PORT ARANSAS     0600            59 63   60/ 15/ 17 1013.0F
BUOY 90 E PORT A 0550            68 73  320/  8/ 10 1014.5F         3/ 7   3/ 7
BUOY 45 SE BAFFI 0550            65     330/ 12/ 14 1015.1S         3/ 8   3/ 8
BUOY 200 E PT IS 0450            75 75  160/ 10/ 12 1015.8          4/ 7   3/ 7
BUOY 15 E GALVES 0550            65 66  270/  6/  8 1014.0F         3/ 6   2/ 6
$$



USA.gov is the U.S. government's official web portal to all federal, state and local government web resources and services.